Location: Bradley
(41.1420°N, 87.8610°W)
Time: 15:27:20
(UTC-05:00)

OTV 5 (USA 277) - Visible Passes

Search period start: 16 October 2018 00:00
Search period end: 26 October 2018 00:00
Orbit: 387 x 394 km, 54.5° (Epoch: 08 September)

Date Brightness Start Highest point End Pass type
(mag) Time Alt. Az. Time Alt. Az. Time Alt. Az.
16 Oct ? 05:08:14 36° NE 05:08:14 36° NE 05:11:11 10° ESE visible
17 Oct ? 05:47:00 39° W 05:47:43 48° SW 05:50:48 10° SSE visible
18 Oct ? 04:53:29 19° ESE 04:53:29 19° ESE 04:54:32 10° SE visible
18 Oct ? 06:26:10 10° WSW 06:26:50 10° SW 06:27:29 10° SW visible
19 Oct ? 05:32:31 15° S 05:32:31 15° S 05:33:18 10° S visible
22 Oct ? 19:16:06 10° S 19:17:21 15° SSE 19:17:21 15° SSE visible
23 Oct ? 19:54:18 10° SW 19:56:09 32° SW 19:56:09 32° SW visible
24 Oct ? 18:58:15 10° SSW 19:01:10 33° SE 19:02:22 24° E visible
24 Oct ? 20:34:24 10° W 20:34:47 12° W 20:34:47 12° W visible
25 Oct ? 19:37:27 10° WSW 19:40:33 49° NW 19:40:52 46° NNW visible
